• en France
  • Liste des pays
  • À 7 jours
  • Température de l'eau
  • Carte satellitaire
  • Carte météo
  • Widgets météo
  • user-avatar
    Se connecter

    Météo par heure à Salta

    Ce jour, 14 Novembre, Mercredi

    Heure Température Précipitation Vent Pression Humidité
    00:00 +19°C° 0 mm 1 m/s 651 mmHg 68%
    01:00 +19°C° 0 mm 1 m/s 651 mmHg 67%
    02:00 +19°C° 0 mm 1 m/s 650 mmHg 66%
    03:00 +18°C° 0 mm 1 m/s 650 mmHg 64%
    04:00 +18°C° 0 mm 1 m/s 650 mmHg 63%
    05:00 +18°C° 0 mm 1 m/s 650 mmHg 62%
    06:00 +19°C° 0 mm 1 m/s 651 mmHg 57%
    07:00 +20°C° 0 mm 2 m/s 652 mmHg 51%
    08:00 +21°C° 0 mm 2 m/s 652 mmHg 46%
    09:00 +24°C° 0 mm 2 m/s 652 mmHg 44%
    10:00 +25°C° 0 mm 3 m/s 652 mmHg 41%
    11:00 +27°C° 0 mm 3 m/s 653 mmHg 39%
    12:00 +27°C° 0 mm 3 m/s 652 mmHg 39%
    13:00 +28°C° 0 mm 3 m/s 651 mmHg 39%
    14:00 +28°C° 0 mm 4 m/s 651 mmHg 39%
    15:00 +28°C° 0 mm 4 m/s 650 mmHg 42%
    16:00 +27°C° 0 mm 4 m/s 650 mmHg 46%
    17:00 +26°C° 0 mm 4 m/s 649 mmHg 50%
    18:00 +25°C° 0 mm 3 m/s 650 mmHg 55%
    19:00 +23°C° 0 mm 2 m/s 650 mmHg 60%
    20:00 +21°C° 0 mm 2 m/s 650 mmHg 65%
    21:00 +20°C° 0 mm 2 m/s 651 mmHg 67%
    22:00 +20°C° 0 mm 2 m/s 651 mmHg 69%
    23:00 +19°C° 0 mm 2 m/s 651 mmHg 71%

    Demain, 15 Novembre, Jeudi

    Heure Température Précipitation Vent Pression Humidité
    00:00 +20°C° 0 mm 1 m/s 651 mmHg 73%
    01:00 +19°C° 0 mm 1 m/s 650 mmHg 75%
    02:00 +19°C° 0 mm 1 m/s 649 mmHg 78%
    03:00 +18°C° 0 mm 1 m/s 649 mmHg 77%
    04:00 +18°C° 0 mm 1 m/s 649 mmHg 77%
    05:00 +18°C° 0 mm 1 m/s 649 mmHg 77%
    06:00 +20°C° 0 mm 1 m/s 649 mmHg 68%
    07:00 +22°C° 0 mm 1 m/s 650 mmHg 59%
    08:00 +24°C° 0 mm 2 m/s 651 mmHg 49%
    09:00 +25°C° 0 mm 2 m/s 651 mmHg 45%
    10:00 +27°C° 0 mm 3 m/s 651 mmHg 41%
    11:00 +29°C° 0 mm 3 m/s 651 mmHg 36%
    12:00 +30°C° 0 mm 3 m/s 651 mmHg 36%
    13:00 +30°C° 0 mm 4 m/s 650 mmHg 35%
    14:00 +32°C° 0 mm 4 m/s 649 mmHg 35%
    15:00 +30°C° 0 mm 4 m/s 649 mmHg 38%
    16:00 +30°C° 0 mm 4 m/s 648 mmHg 42%
    17:00 +29°C° 0 mm 4 m/s 647 mmHg 45%
    18:00 +27°C° 0 mm 3 m/s 648 mmHg 53%
    19:00 +25°C° 0 mm 2 m/s 648 mmHg 61%
    20:00 +23°C° 0 mm 2 m/s 648 mmHg 68%
    21:00 +23°C° 0 mm 1 m/s 649 mmHg 70%
    22:00 +22°C° 0 mm 1 m/s 649 mmHg 72%
    23:00 +22°C° 0 mm 1 m/s 650 mmHg 74%

    Après-demain, 16 Novembre, Vendredi

    Heure Température Précipitation Vent Pression Humidité
    00:00 +21°C° 0 mm 1 m/s 650 mmHg 75%
    01:00 +21°C° 0 mm 1 m/s 649 mmHg 75%
    02:00 +21°C° 0 mm 1 m/s 649 mmHg 76%
    03:00 +20°C° 0 mm 1 m/s 649 mmHg 77%
    04:00 +20°C° 0 mm 1 m/s 649 mmHg 77%
    05:00 +20°C° 0 mm 1 m/s 649 mmHg 77%
    06:00 +22°C° 0 mm 1 m/s 650 mmHg 69%
    07:00 +24°C° 0 mm 1 m/s 651 mmHg 61%
    08:00 +26°C° 0 mm 1 m/s 652 mmHg 52%
    09:00 +27°C° 0 mm 2 m/s 652 mmHg 49%
    10:00 +28°C° 0 mm 3 m/s 652 mmHg 46%
    11:00 +30°C° 0 mm 3 m/s 652 mmHg 43%
    12:00 +30°C° 0.1 mm 3 m/s 651 mmHg 44%
    13:00 +30°C° 0.1 mm 4 m/s 651 mmHg 45%
    14:00 +30°C° 0.1 mm 4 m/s 650 mmHg 46%
    15:00 +30°C° 0.2 mm 4 m/s 649 mmHg 49%
    16:00 +29°C° 0.2 mm 4 m/s 648 mmHg 52%
    17:00 +28°C° 0.2 mm 4 m/s 648 mmHg 54%
    18:00 +27°C° 0.3 mm 3 m/s 648 mmHg 60%
    19:00 +26°C° 0.3 mm 2 m/s 648 mmHg 66%
    20:00 +24°C° 0.3 mm 2 m/s 649 mmHg 72%
    21:00 +24°C° 0.1 mm 1 m/s 649 mmHg 73%
    22:00 +23°C° 0.1 mm 1 m/s 649 mmHg 75%
    23:00 +23°C° 0.1 mm 1 m/s 649 mmHg 77%

    17 Novembre, Samedi

    Heure Température Précipitation Vent Pression Humidité
    00:00 +23°C° 0.6 mm 1 m/s 649 mmHg 79%
    01:00 +22°C° 0.6 mm 1 m/s 648 mmHg 80%
    02:00 +22°C° 0.6 mm 1 m/s 648 mmHg 82%
    03:00 +22°C° 0.1 mm 1 m/s 647 mmHg 82%
    04:00 +22°C° 0.1 mm 1 m/s 647 mmHg 82%
    05:00 +21°C° 0.1 mm 1 m/s 647 mmHg 82%
    06:00 +23°C° 0 mm 1 m/s 648 mmHg 73%
    07:00 +25°C° 0 mm 1 m/s 649 mmHg 64%
    08:00 +27°C° 0 mm 1 m/s 650 mmHg 55%
    09:00 +28°C° 0 mm 2 m/s 650 mmHg 49%
    10:00 +30°C° 0 mm 2 m/s 650 mmHg 44%
    11:00 +33°C° 0 mm 3 m/s 650 mmHg 38%
    12:00 +34°C° 0.2 mm 3 m/s 649 mmHg 37%
    13:00 +34°C° 0.2 mm 3 m/s 649 mmHg 36%
    14:00 +35°C° 0.2 mm 3 m/s 648 mmHg 35%
    15:00 +34°C° 0.7 mm 3 m/s 648 mmHg 39%
    16:00 +33°C° 0.7 mm 3 m/s 647 mmHg 42%
    17:00 +33°C° 0.7 mm 3 m/s 647 mmHg 45%
    18:00 +29°C° 0.7 mm 2 m/s 647 mmHg 54%
    19:00 +27°C° 0.7 mm 2 m/s 647 mmHg 62%
    20:00 +25°C° 0.7 mm 1 m/s 648 mmHg 71%
    21:00 +25°C° 0.3 mm 1 m/s 648 mmHg 71%
    22:00 +24°C° 0.3 mm 1 m/s 649 mmHg 71%
    23:00 +24°C° 0.3 mm 1 m/s 649 mmHg 72%

    18 Novembre, Dimanche

    Heure Température Précipitation Vent Pression Humidité
    00:00 +24°C° 0.1 mm 2 m/s 649 mmHg 73%
    01:00 +23°C° 0.1 mm 2 m/s 649 mmHg 74%
    02:00 +23°C° 0.1 mm 2 m/s 649 mmHg 76%
    03:00 +21°C° 0.1 mm 2 m/s 649 mmHg 78%
    04:00 +21°C° 0.1 mm 3 m/s 650 mmHg 81%
    05:00 +20°C° 0.1 mm 3 m/s 650 mmHg 84%
    06:00 +20°C° 0.3 mm 3 m/s 651 mmHg 82%
    07:00 +19°C° 0.3 mm 3 m/s 652 mmHg 80%
    08:00 +18°C° 0.3 mm 3 m/s 652 mmHg 79%
    09:00 +18°C° 0.1 mm 3 m/s 652 mmHg 74%
    10:00 +19°C° 0.1 mm 3 m/s 652 mmHg 69%
    11:00 +19°C° 0.1 mm 2 m/s 652 mmHg 64%
    12:00 +20°C° 0 mm 3 m/s 652 mmHg 58%
    13:00 +21°C° 0 mm 3 m/s 652 mmHg 52%
    14:00 +22°C° 0 mm 3 m/s 652 mmHg 47%
    15:00 +22°C° 0 mm 3 m/s 651 mmHg 47%
    16:00 +22°C° 0 mm 3 m/s 651 mmHg 47%
    17:00 +22°C° 0 mm 3 m/s 651 mmHg 48%
    18:00 +20°C° 0 mm 2 m/s 651 mmHg 53%
    19:00 +19°C° 0 mm 2 m/s 652 mmHg 58%
    20:00 +18°C° 0 mm 1 m/s 652 mmHg 63%
    21:00 +18°C° 0 mm 1 m/s 652 mmHg 64%
    22:00 +18°C° 0 mm 1 m/s 652 mmHg 65%
    23:00 +18°C° 0 mm 1 m/s 653 mmHg 66%

    19 Novembre, Lundi

    Heure Température Précipitation Vent Pression Humidité
    00:00 +16°C° 0 mm 1 m/s 652 mmHg 66%
    01:00 +16°C° 0 mm 1 m/s 652 mmHg 67%
    02:00 +16°C° 0 mm 1 m/s 651 mmHg 68%
    03:00 +16°C° 0 mm 1 m/s 651 mmHg 69%
    04:00 +16°C° 0 mm 1 m/s 651 mmHg 70%
    05:00 +15°C° 0 mm 1 m/s 651 mmHg 71%
    06:00 +18°C° 0 mm 1 m/s 652 mmHg 65%
    07:00 +20°C° 0 mm 1 m/s 653 mmHg 59%
    08:00 +21°C° 0 mm 2 m/s 654 mmHg 52%
    09:00 +24°C° 0 mm 2 m/s 654 mmHg 49%
    10:00 +26°C° 0 mm 3 m/s 653 mmHg 45%
    11:00 +27°C° 0 mm 3 m/s 653 mmHg 41%
    12:00 +28°C° 0 mm 3 m/s 653 mmHg 41%
    13:00 +28°C° 0 mm 4 m/s 652 mmHg 41%
    14:00 +29°C° 0 mm 4 m/s 651 mmHg 40%
    15:00 +29°C° 0 mm 4 m/s 651 mmHg 43%
    16:00 +28°C° 0 mm 4 m/s 650 mmHg 46%
    17:00 +27°C° 0 mm 4 m/s 649 mmHg 49%
    18:00 +25°C° 0 mm 3 m/s 649 mmHg 57%
    19:00 +24°C° 0 mm 3 m/s 649 mmHg 66%
    20:00 +21°C° 0 mm 2 m/s 649 mmHg 74%
    21:00 +20°C° 0 mm 2 m/s 649 mmHg 77%
    22:00 +21°C° 0 mm 1 m/s 649 mmHg 79%
    23:00 +20°C° 0 mm 1 m/s 649 mmHg 82%
    Voir plus